South Lake Tahoe, CA

4:11 AM PDT on June 21, 2018 (GMT -0700)
Lake Tahoe

Weather History for KTVL - October, 2017

Change the Weather History Date:

Tuesday, October 10, 2017

  Actual Average Record
Temperature  
Mean Temperature 44 °F 47 °F  
Max Temperature 64 °F 65 °F 81 °F (1996)
Min Temperature 23 °F 29 °F 17 °F (1985)
Degree Days  
Heating Degree Days 21 18  
Month to date heating degree days 209 166  
Since 1 July heating degree days 653 792  
Cooling Degree Days 0 0  
Month to date cooling degree days 0 0  
Year to date cooling degree days 81 31  
Moisture  
Dew Point 18 °F    
Average Humidity 48    
Maximum Humidity 81    
Minimum Humidity 14    
Precipitation  
Precipitation 0.00 in - 1.02 in (1975)
Month to date precipitation 0.00  
Year to date precipitation 35.30  
Sea Level Pressure  
Sea Level Pressure 30.04 in    
Wind  
Wind Speed 7 mph (SSW)    
Max Wind Speed 17 mph    
Max Gust Speed 24 mph    
Visibility 10 miles    
Events      
T = Trace of Precipitation, MM = Missing Value Source: NWS Daily Summary

Daily Weather History Graph

Daily Weather History Graph

Search for Another Location

Airport or City:

Astronomy

Oct. 10, 2017 Rise Set
Actual Time 7:04 AM PDT 6:28 PM PDT
Civil Twilight 6:38 AM PDT 6:54 PM PDT
Nautical Twilight 6:07 AM PDT 7:25 PM PDT
Astronomical Twilight 5:36 AM PDT 7:56 PM PDT
Moon 10:39 PM PDT (10/10) 12:23 PM PDT (10/10)
Length of Visible Light 12h 16m
Length of Day
11h 23m
Waning Gibbous, 70% of the Moon is Illuminated
Oct 10
Waning Gibbous
Oct 12
Last Quarter
Oct 19
New
Oct 27
First Quarter
Nov 3
Full

Hourly Weather History & Observations

Time (PDT) Temp. Windchill Dew Point Humidity Pressure Visibility Wind Dir Wind Speed Gust Speed Precip Events Conditions
12:53 AM 28.0 °F 22.8 °F 21.0 °F 75% 30.11 in 7.0 mi South 4.6 mph - N/A   Clear
1:53 AM 28.0 °F 24.2 °F 19.9 °F 72% 30.10 in 10.0 mi SSW 3.5 mph - N/A   Clear
2:53 AM 27.0 °F 23.0 °F 19.9 °F 75% 30.09 in 10.0 mi South 3.5 mph - N/A   Clear
3:53 AM 27.0 °F 23.0 °F 19.9 °F 75% 30.09 in 10.0 mi South 3.5 mph - N/A   Clear
4:53 AM 26.1 °F - 19.9 °F 78% 30.09 in 10.0 mi Calm Calm - N/A   Clear
5:53 AM 25.0 °F 19.3 °F 19.0 °F 78% 30.12 in 10.0 mi South 4.6 mph - N/A   Clear
6:53 AM 24.1 °F 17.0 °F 19.0 °F 81% 30.14 in 10.0 mi South 5.8 mph - N/A   Clear
7:53 AM 25.0 °F 18.1 °F 19.0 °F 78% 30.15 in 10.0 mi South 5.8 mph - N/A   Clear
8:53 AM 35.1 °F 30.1 °F 21.9 °F 59% 30.14 in 10.0 mi South 5.8 mph - N/A   Clear
9:53 AM 50.0 °F - 24.1 °F 36% 30.08 in 10.0 mi Calm Calm - N/A   Clear
10:53 AM 59.0 °F - 12.9 °F 16% 30.04 in 10.0 mi South 12.7 mph 18.4 mph N/A   Clear
11:53 AM 61.0 °F - 12.0 °F 15% 30.04 in 10.0 mi South 11.5 mph 23.0 mph N/A   Clear
12:53 PM 61.0 °F - 10.9 °F 14% 30.03 in 10.0 mi South 8.1 mph - N/A   Clear
1:53 PM 62.1 °F - 14.0 °F 15% 29.99 in 10.0 mi South 10.4 mph 18.4 mph N/A   Clear
2:53 PM 62.1 °F - 15.1 °F 16% 29.98 in 10.0 mi SSW 11.5 mph 19.6 mph N/A   Clear
3:53 PM 61.0 °F - 17.1 °F 18% 29.98 in 10.0 mi SSW 12.7 mph 19.6 mph N/A   Clear
4:53 PM 59.0 °F - 17.1 °F 20% 29.98 in 10.0 mi SSW 6.9 mph 24.2 mph N/A   Clear
5:53 PM 55.0 °F - 18.0 °F 23% 29.99 in 10.0 mi Variable 6.9 mph 17.3 mph N/A   Clear
6:53 PM 52.0 °F - 19.0 °F 27% 30.02 in 10.0 mi SW 5.8 mph - N/A   Clear
7:53 PM 48.9 °F - 19.0 °F 31% 30.03 in 10.0 mi SW 6.9 mph - N/A   Clear
8:53 PM 45.0 °F 41.2 °F 19.9 °F 37% 30.00 in 10.0 mi South 6.9 mph - N/A   Clear
9:53 PM 41.0 °F 36.4 °F 21.0 °F 45% 29.96 in 10.0 mi South 6.9 mph - N/A   Clear
10:53 PM 39.0 °F 35.7 °F 19.9 °F 46% 29.94 in 10.0 mi South 4.6 mph - N/A   Clear
11:53 PM 46.0 °F 42.5 °F 16.0 °F 30% 29.89 in 10.0 mi South 6.9 mph - N/A   Clear